This is the latest recevied weather packets stored in our database for station/object NE1CU. If no packets are shown the sender has not sent any weather packets the latest 10 day(s).
| Time | Temp. | Humidity | Pressure | Rain* | Wind** | Luminosity | Snow |
|---|---|---|---|---|---|---|---|
| 1778009279 | 22.78° C | 53% | 1008.9 hPa | 0 mm | - | 572 W/m² | - |
| 1778008977 | 23.33° C | 53% | 1008.9 hPa | 0 mm | - | 581 W/m² | - |
| 1778008674 | 22.78° C | 52% | 1009.1 hPa | 0 mm | - | 684 W/m² | - |
| 1778008372 | 23.33° C | 51% | 1009.4 hPa | 0 mm | - | 750 W/m² | - |
| 1778008068 | 23.33° C | 53% | 1009.3 hPa | 0 mm | - | 769 W/m² | - |
| 1778007763 | 23.33° C | 51% | 1009.5 hPa | 0 mm | - | 781 W/m² | - |
| 1778007460 | 23.33° C | 52% | 1009.5 hPa | 0 mm | - | 790 W/m² | - |
| 1778007157 | 23.33° C | 54% | 1009.5 hPa | 0 mm | - | 803 W/m² | - |
| 1778006853 | 23.33° C | 51% | 1009.7 hPa | 0 mm | - | 816 W/m² | - |
| 1778006551 | 23.33° C | 52% | 1009.6 hPa | 0 mm | - | 826 W/m² | - |
| 1778006247 | 22.78° C | 55% | 1009.5 hPa | 0 mm | - | 835 W/m² | - |
| 1778005944 | 23.33° C | 53% | 1009.5 hPa | 0 mm | - | 849 W/m² | - |
| 1778005641 | 23.33° C | 53% | 1009.5 hPa | 0 mm | - | 859 W/m² | - |
| 1778005338 | 23.33° C | 51% | 1009.4 hPa | 0 mm | - | 871 W/m² | - |
| 1778005034 | 23.33° C | 52% | 1009.5 hPa | 0 mm | - | 871 W/m² | - |
| 1778004732 | 23.33° C | 51% | 1009.6 hPa | 0 mm | - | 882 W/m² | - |
| 1778004428 | 23.33° C | 52% | 1009.6 hPa | 0 mm | - | 892 W/m² | - |
| 1778004125 | 23.33° C | 52% | 1009.5 hPa | 0 mm | - | 899 W/m² | - |
| 1778003821 | 22.78° C | 52% | 1009.6 hPa | 0 mm | - | 905 W/m² | - |
| 1778003517 | 23.33° C | 53% | 1009.6 hPa | 0 mm | - | 910 W/m² | - |
| 1778003214 | 23.33° C | 52% | 1009.7 hPa | 0 mm | - | 917 W/m² | - |
| 1778002910 | 23.33° C | 52% | 1009.6 hPa | 0 mm | - | 917 W/m² | - |
| 1778002607 | 23.33° C | 54% | 1009.6 hPa | 0 mm | - | 927 W/m² | - |
| 1778002304 | 23.89° C | 52% | 1009.7 hPa | 0 mm | - | 932 W/m² | - |
| 1778002001 | 23.33° C | 53% | 1009.6 hPa | 0 mm | - | 933 W/m² | - |
* Rain latest hour (hover to see other rain measurements)
** Current wind speed in m/s (hover to see current wind gust speed)